This is the latest recevied weather packets stored in our database for station/object EA5JMY-10. If no packets are shown the sender has not sent any weather packets the latest 10 day(s).
| Time | Temp. | Humidity | Pressure | Rain* | Wind** | Luminosity | Snow |
|---|---|---|---|---|---|---|---|
| 1787936047 | 31.11° C | 27% | 1017.3 hPa | - | - | - | - |
| 1787935147 | 31.11° C | 28% | 1017.6 hPa | - | - | - | - |
| 1787934246 | 32.22° C | 24% | 1017.6 hPa | - | - | - | - |
| 1787933346 | 31.11° C | 26% | 1018 hPa | - | - | - | - |
| 1787932446 | 32.22° C | 25% | 1018.5 hPa | - | - | - | - |
| 1787931545 | 31.67° C | 28% | 1018.8 hPa | - | - | - | - |
| 1787930645 | 31.11° C | 29% | 1018.8 hPa | - | - | - | - |
| 1787929745 | 31.11° C | 31% | 1018.8 hPa | - | - | - | - |
| 1787928845 | 30° C | 34% | 1019.2 hPa | - | - | - | - |
| 1787927944 | 30° C | 38% | 1018.8 hPa | - | - | - | - |
| 1787927044 | 30.56° C | 35% | 1018.8 hPa | - | - | - | - |
| 1787926144 | 27.22° C | 42% | 1019.4 hPa | - | - | - | - |
| 1787925244 | 26.67° C | 47% | 1019.3 hPa | - | - | - | - |
| 1787924343 | 26.11° C | 48% | 1019.6 hPa | - | - | - | - |
| 1787923443 | 25° C | 49% | 1020.2 hPa | - | - | - | - |
| 1787922543 | 27.22° C | 46% | 1019.8 hPa | - | - | - | - |
| 1787921643 | 28.89° C | 27% | 1020.3 hPa | - | - | - | - |
| 1787920742 | 30.56° C | 25% | 1020.7 hPa | - | - | - | - |
| 1787919842 | 28.89° C | 28% | 1020 hPa | - | - | - | - |
| 1787918942 | 28.89° C | 28% | 1019.7 hPa | - | - | - | - |
| 1787918042 | 28.89° C | 28% | 1019.6 hPa | - | - | - | - |
| 1787917142 | 28.89° C | 28% | 1020 hPa | - | - | - | - |
| 1787916242 | 28.89° C | 29% | 1020.3 hPa | - | - | - | - |
| 1787915341 | 28.33° C | 29% | 1020.5 hPa | - | - | - | - |
| 1787914441 | 29.44° C | 28% | 1020.8 hPa | - | - | - | - |
* Rain since midnight (hover to see other rain measurements)
** Current wind speed in m/s (hover to see current wind gust speed)